| time (UTC) | temp F | wind direction | speed MPH | gust MPH | rain 1hr in | rain 24hr in | rain mn in | humidity % | barometer mb |
| 20260502224603 | 84 | 89 | 1.0 | 4.0 | 0.00 | 0.00 | 0.00 | 34 | 1015.2 |
| 20260502223107 | 83 | 109 | 1.0 | 3.0 | 0.00 | 0.00 | 0.00 | 34 | 1015.4 |
| 20260502221527 | 83 | 78 | 1.0 | 4.0 | 0.00 | 0.00 | 0.00 | 35 | 1015.6 |
| 20260502220036 | 82 | 77 | 1.0 | 3.0 | 0.00 | 0.00 | 0.00 | 37 | 1015.8 |
| 20260502213027 | 80 | 126 | 1.0 | 4.0 | 0.00 | 0.00 | 0.00 | 36 | 1016.3 |
| 20260502210107 | 81 | 123 | 0.0 | 3.0 | 0.00 | 0.00 | 0.00 | 36 | 1016.5 |
| 20260502204531 | 81 | 93 | 1.0 | 4.0 | 0.00 | 0.00 | 0.00 | 39 | 1016.5 |
| 20260502203031 | 79 | 66 | 0.0 | 3.0 | 0.00 | 0.00 | 0.00 | 40 | 1016.7 |
| 20260502194528 | 74 | 53 | 1.0 | 4.0 | 0.00 | 0.00 | 0.00 | 51 | 1017.2 |
| 20260502191529 | 70 | 50 | 1.0 | 5.0 | 0.00 | 0.00 | 0.00 | 59 | 1017.6 |
| 20260502190029 | 67 | 36 | 1.0 | 7.0 | 0.00 | 0.00 | 0.00 | 63 | 1017.8 |
| 20260502163030 | 57 | 315 | 0.0 | 2.0 | 0.00 | 0.00 | 0.00 | 81 | 1018.5 |
| 20260502151531 | 53 | 296 | 0.0 | 5.0 | 0.00 | 0.00 | 0.00 | 84 | 1018.2 |
| 20260502123037 | 53 | 225 | 0.0 | 2.0 | 0.00 | 0.00 | 0.00 | 80 | 1016.6 |
| 20260502121608 | 53 | 246 | 1.0 | 3.0 | 0.00 | 0.00 | 0.00 | 80 | 1016.7 |
| 20260502114532 | 54 | 271 | 1.0 | 4.0 | 0.00 | 0.00 | 0.00 | 79 | 1016.7 |
| 20260502111529 | 52 | 179 | 1.0 | 6.0 | 0.00 | 0.00 | 0.00 | 81 | 1016.5 |
| 20260502110038 | 52 | 185 | 0.0 | 3.0 | 0.00 | 0.00 | 0.00 | 81 | 1016.8 |
| 20260502104530 | 52 | 214 | 0.0 | 2.0 | 0.00 | 0.00 | 0.00 | 82 | 1017.1 |
| 20260502103105 | 52 | 228 | 1.0 | 3.0 | 0.00 | 0.00 | 0.00 | 81 | 1017.1 |
| 20260502101531 | 52 | 159 | 0.0 | 2.0 | 0.00 | 0.00 | 0.00 | 82 | 1016.9 |
| 20260502091532 | 54 | 251 | 0.0 | 3.0 | 0.00 | 0.00 | 0.00 | 74 | 1017.0 |
| 20260502071530 | 54 | 228 | 0.0 | 4.0 | 0.00 | 0.00 | 0.00 | 74 | 1017.4 |
| 20260502064531 | 55 | 229 | 1.0 | 4.0 | 0.00 | 0.00 | 0.00 | 74 | 1017.4 |
| 20260502063033 | 55 | 247 | 0.0 | 2.0 | 0.00 | 0.00 | 0.00 | 75 | 1017.3 |
| 20260502060035 | 56 | 267 | 0.0 | 2.0 | 0.00 | 0.00 | 0.00 | 72 | 1017.1 |
| 20260502054529 | 56 | 218 | 0.0 | 2.0 | 0.00 | 0.00 | 0.00 | 74 | 1017.1 |
| 20260502053030 | 56 | 208 | 0.0 | 0.0 | 0.00 | 0.00 | 0.00 | 72 | 1016.8 |
| 20260502051531 | 58 | 225 | 0.0 | 0.0 | 0.00 | 0.00 | 0.00 | 69 | 1016.8 |
| 20260502044533 | 60 | 241 | 0.0 | 4.0 | 0.00 | 0.00 | 0.00 | 63 | 1016.7 |
| 20260502043031 | 61 | 18 | 0.0 | 2.0 | 0.00 | 0.00 | 0.00 | 62 | 1016.6 |
| 20260502041530 | 63 | 35 | 0.0 | 2.0 | 0.00 | 0.00 | 0.00 | 59 | 1016.5 |
| 20260502040213 | 0 | 0 | 0.0 | 0.0 | 0.00 | 0.00 | 0.00 | 100 | |
| 20260502033144 | 65 | 360 | 0.0 | 4.0 | 0.00 | 0.00 | 0.00 | 53 | 1016.0 |
| 20260502031532 | 65 | 112 | 0.0 | 2.0 | 0.00 | 0.00 | 0.00 | 51 | 1015.7 |
| 20260502024533 | 68 | 135 | 0.0 | 0.0 | 0.00 | 0.00 | 0.00 | 50 | 1015.3 |
| 20260502023030 | 70 | 135 | 0.0 | 0.0 | 0.00 | 0.00 | 0.00 | 52 | 1015.2 |
| 20260502021531 | 71 | 135 | 0.0 | 0.0 | 0.00 | 0.00 | 0.00 | 49 | 1015.1 |
| 20260502020031 | 72 | 135 | 0.0 | 0.0 | 0.00 | 0.00 | 0.00 | 47 | 1015.0 |
| 20260502013041 | 74 | 135 | 0.0 | 2.0 | 0.00 | 0.00 | 0.00 | 36 | 1014.9 |
| 20260502011602 | 75 | 142 | 0.0 | 3.0 | 0.00 | 0.00 | 0.00 | 34 | 1015.0 |
| 20260502010031 | 77 | 140 | 1.0 | 5.0 | 0.00 | 0.00 | 0.00 | 32 | 1015.0 |
| 20260502004532 | 78 | 128 | 1.0 | 4.0 | 0.00 | 0.00 | 0.00 | 29 | 1015.1 |
| 20260502003030 | 80 | 137 | 1.0 | 6.0 | 0.00 | 0.00 | 0.00 | 29 | 1015.2 |
| 20260502000031 | 81 | 117 | 2.0 | 6.0 | 0.00 | 0.00 | 0.00 | 29 | 1015.3 |
| 20260501234530 | 80 | 123 | 2.0 | 6.0 | 0.00 | 0.00 | 0.00 | 30 | 1015.5 |
| 20260501233031 | 79 | 131 | 2.0 | 9.0 | 0.00 | 0.00 | 0.00 | 31 | 1015.6 |
| 20260501230030 | 80 | 129 | 1.0 | 9.0 | 0.00 | 0.00 | 0.00 | 30 | 1016.1 |